Theta_e
321 322 322 322 322 323 323 322 325 327 328 330 330 330 325 331 333 330 335 335 334 332 330 332 330 330 331 330 330 331 330 330 331 333 335 333 330 330 332 332 332 333 333 333 332 327 318 308 308 310 310 312 313 313 314 315 315 315 315 315 315 314 313 311 308 305 304 305 308 308 306 306 306 305 305 305 305 304 304 303 303 302 302 302 302 303 302 303 302 303 302 302 302 301 301 301 301
321 322 322 321 322 322 323 322 328 331 329 329 329 331 327 327 331 332 338 338 336 332 331 331 330 331 331 330 329 330 331 330 330 332 333 331 331 332 332 332 333 333 333 333 332 327 317 309 308 309 310 312 312 313 314 315 315 315 315 315 315 315 314 312 308 306 305 305 307 307 306 306 305 305 305 304 304 304 303 302 302 302 302 303 302 303 302 303 302 302 302 302 302 301 301 301 301
322 322 322 322 322 321 323 323 328 331 329 328 326 329 327 327 334 338 336 333 333 331 332 331 331 332 331 332 331 332 333 331 331 332 332 331 331 332 333 332 332 333 332 333 332 327 317 309 308 309 311 311 312 313 314 315 315 315 315 315 315 314 314 312 309 306 305 305 306 306 306 306 305 305 305 304 304 303 303 302 302 302 303 303 303 303 303 303 302 302 302 302 301 301 301 301 301
322 322 322 322 322 322 325 325 330 330 327 327 326 328 328 327 333 334 331 330 331 331 332 331 332 331 331 336 333 334 333 331 332 331 332 331 331 332 332 332 333 332 332 332 331 326 317 310 308 309 311 311 312 313 314 314 314 315 315 315 314 314 314 313 310 307 305 305 306 306 306 306 305 305 304 304 304 303 302 302 302 303 303 303 303 303 303 302 302 302 301 301 301 301 301 301 301
322 322 322 323 323 322 324 326 331 330 326 327 327 330 329 327 329 330 330 331 331 331 331 332 333 331 331 334 332 334 334 332 332 331 331 331 332 332 332 332 333 332 332 332 331 326 316 310 308 309 311 311 312 313 314 314 314 315 315 315 314 314 314 314 311 307 305 305 306 306 306 306 305 305 304 304 303 303 302 302 302 303 303 303 303 303 303 302 302 302 301 301 301 301 301 301 301
322 323 322 323 323 321 324 325 329 328 325 328 327 330 332 328 328 329 330 330 330 331 331 332 333 331 331 332 331 333 333 332 332 331 331 332 332 332 332 333 333 332 332 331 330 325 316 309 308 310 311 311 312 313 314 314 315 315 315 315 314 314 314 314 312 308 306 305 306 306 306 306 305 305 304 304 303 302 302 302 302 303 303 303 303 303 302 302 302 301 301 301 301 301 301 301 301
322 323 323 324 323 320 325 327 326 325 324 326 326 330 332 330 328 329 330 330 331 331 331 332 331 334 335 332 331 332 332 332 332 331 331 332 332 332 332 333 333 332 332 332 330 325 314 309 308 309 311 311 312 313 314 314 314 315 315 315 314 314 314 314 313 309 306 305 305 306 306 306 305 305 304 304 303 302 302 302 302 303 303 303 303 303 302 302 302 301 301 301 301 301 301 301 301
322 323 323 326 326 323 327 328 325 324 324 323 323 326 327 327 329 330 330 330 331 330 331 331 330 336 337 330 332 332 331 332 332 331 332 333 332 332 333 333 333 332 331 332 330 323 313 308 308 309 311 311 312 313 314 314 314 315 314 314 314 314 314 314 314 310 307 305 305 306 306 306 305 305 304 303 303 302 302 302 303 303 303 303 303 302 302 301 301 301 301 301 301 300 301 301 300
321 323 322 325 329 326 327 328 325 323 323 322 321 322 323 326 330 330 330 330 331 330 330 331 331 335 334 329 332 332 331 333 332 331 332 333 333 333 333 333 333 332 332 332 329 321 312 308 308 309 311 311 312 313 314 314 314 314 314 314 314 314 314 314 314 311 307 305 305 306 306 306 305 305 304 303 302 302 302 302 303 303 303 303 302 302 302 301 301 301 301 301 301 300 300 300 300
321 322 322 325 329 327 326 327 325 324 323 321 320 321 323 327 330 330 331 331 330 330 330 330 330 332 332 330 332 332 332 334 332 331 332 332 332 332 333 333 332 332 332 332 328 319 312 308 307 309 310 311 312 312 313 314 314 314 314 314 314 314 314 314 314 312 308 305 305 306 306 306 305 304 304 303 302 302 302 302 303 303 303 303 302 302 301 301 301 301 301 301 301 300 300 300 300
322 322 321 325 328 327 326 325 324 324 324 322 320 320 322 326 330 330 330 332 331 330 330 330 330 330 330 330 332 332 332 334 332 332 332 332 332 332 332 332 332 332 332 332 326 317 312 308 308 309 310 311 312 312 313 314 314 314 314 314 314 314 314 314 314 313 310 306 304 305 306 306 305 304 304 303 302 302 302 302 303 303 303 303 302 302 301 301 301 301 300 300 300 300 300 300 300
322 322 322 327 328 325 325 325 323 323 325 323 322 320 321 326 331 331 331 331 330 330 330 330 331 330 330 330 332 332 333 334 332 332 332 331 332 331 332 332 331 332 332 332 326 317 313 310 308 309 310 311 311 312 313 314 314 314 314 314 314 314 314 314 314 314 311 307 304 305 306 306 305 305 304 304 302 302 302 302 303 303 303 302 302 301 301 301 300 300 300 300 300 300 300 300 300
321 321 324 328 327 325 324 325 324 324 325 324 321 320 321 326 331 331 331 331 330 330 331 330 329 330 331 330 332 332 334 334 332 333 333 332 332 331 332 331 331 332 332 331 328 321 315 312 309 308 310 311 311 312 312 313 314 314 314 314 314 314 314 314 314 314 312 308 304 304 305 306 305 305 304 304 302 302 302 302 303 303 303 302 302 301 301 301 300 300 300 300 300 300 300 299 300
319 321 323 327 327 325 324 324 324 324 325 324 321 320 321 325 330 331 331 332 330 331 331 330 329 331 332 330 332 333 334 333 332 333 333 332 332 331 331 331 332 332 330 330 330 325 317 313 310 308 310 310 311 311 312 313 313 314 314 314 314 314 314 314 314 314 313 309 305 304 305 306 305 305 304 304 303 302 302 302 303 302 302 302 302 301 301 301 300 300 300 300 300 300 300 299 299
316 320 321 326 328 325 324 324 325 325 324 324 322 320 320 322 326 329 331 333 332 330 331 330 329 331 332 332 333 333 334 333 331 333 332 332 332 332 331 331 332 330 330 330 330 326 319 314 309 308 310 310 311 311 312 313 313 313 313 314 314 313 313 314 314 314 314 310 306 304 305 306 305 305 304 304 303 302 302 302 302 302 302 302 301 301 301 300 300 300 300 300 299 300 299 299 299
313 318 321 326 326 324 324 324 325 326 323 322 322 321 321 321 323 328 330 331 331 329 330 330 329 330 331 331 332 333 334 333 332 333 332 332 333 332 331 331 331 329 329 330 328 324 318 314 309 307 309 310 311 311 312 313 313 313 313 314 313 313 313 314 314 314 314 311 307 304 305 306 305 305 304 304 303 302 302 302 302 302 302 302 301 301 300 300 300 300 300 300 299 299 299 299 299
310 316 321 323 322 323 323 324 325 325 323 321 320 320 322 322 322 326 329 330 330 329 329 330 329 329 330 330 331 333 333 334 333 333 332 333 333 332 331 332 330 328 328 328 327 324 318 313 308 307 309 310 311 311 311 312 312 312 312 313 313 313 313 313 314 314 314 312 307 304 304 305 305 305 304 304 303 302 302 302 302 302 302 302 301 301 300 300 300 300 300 300 299 299 299 299 299
309 317 319 318 320 322 321 323 321 321 323 320 318 320 322 324 324 325 328 329 328 328 328 329 329 329 329 330 332 332 333 334 333 333 333 333 333 332 331 331 329 327 327 328 326 323 319 312 307 307 309 310 311 311 311 311 312 312 312 313 313 313 313 313 314 314 314 312 308 304 304 305 305 305 304 304 303 302 302 302 302 302 302 301 301 301 300 300 300 300 300 299 299 299 299 299 299
308 313 314 317 319 316 315 316 313 316 318 314 315 317 318 322 324 326 330 328 326 328 326 326 328 328 328 330 332 333 333 334 333 333 333 332 333 332 331 330 327 328 329 329 327 322 319 312 306 307 308 310 310 310 311 311 312 311 311 312 312 313 313 313 314 314 314 313 309 305 304 305 305 305 304 304 303 302 302 302 302 302 302 301 301 301 300 300 300 300 299 299 299 299 299 299 299
306 308 311 315 311 306 309 309 305 308 310 309 312 312 315 321 323 326 329 326 325 328 327 325 327 327 328 330 332 333 334 334 333 333 333 332 333 332 331 330 328 329 330 330 327 323 318 310 306 307 308 309 310 310 310 310 311 311 311 311 312 312 313 313 313 314 314 313 311 306 304 305 305 305 304 304 303 302 301 302 302 302 302 301 301 301 300 300 300 300 299 299 299 299 299 299 299
303 306 309 308 304 304 307 305 303 305 306 308 309 310 316 320 322 325 327 328 326 326 327 328 329 329 328 330 333 333 334 334 333 333 333 332 332 331 332 331 331 331 331 330 328 324 317 308 305 307 308 308 309 310 310 310 311 311 310 310 311 312 312 313 313 314 314 313 311 307 304 305 305 305 304 304 303 302 301 302 302 302 302 301 301 301 300 300 300 300 300 299 299 299 299 299 299
303 305 305 303 302 304 305 304 304 305 306 307 307 310 313 314 319 325 326 329 328 326 328 328 328 329 329 331 333 334 334 333 333 333 333 332 331 332 332 331 331 331 331 330 329 325 315 306 305 307 307 308 308 308 309 309 310 310 309 309 310 311 312 312 313 314 314 313 312 308 304 304 305 305 304 304 303 302 301 302 302 302 302 301 301 301 300 300 300 300 300 299 299 299 299 299 300
304 305 303 302 303 304 304 304 304 305 305 306 306 308 309 311 319 323 324 327 327 327 328 328 329 329 329 331 333 333 333 333 333 333 332 332 332 332 332 330 331 330 330 330 330 325 313 304 305 306 306 307 307 307 307 308 308 308 308 308 309 310 311 312 313 314 314 313 312 308 304 304 305 305 304 304 303 302 301 301 302 302 302 301 301 301 300 300 300 300 300 300 300 300 299 300 300
304 306 303 303 304 304 304 304 304 304 305 305 306 308 310 314 319 321 324 326 326 327 328 328 328 328 329 330 333 333 333 333 333 333 332 331 332 332 332 331 330 330 330 330 330 322 310 304 305 305 305 306 306 306 305 306 306 306 306 307 307 309 311 312 312 313 314 313 312 309 304 304 305 305 304 304 303 302 301 301 302 302 301 301 301 300 300 300 300 300 300 300 300 300 300 300 300
303 305 303 303 304 304 304 304 304 304 304 305 306 309 311 312 316 319 322 324 327 327 327 327 327 327 329 330 333 334 333 333 332 331 331 331 331 332 331 331 330 330 330 331 328 318 307 304 305 305 305 305 304 304 304 304 304 305 306 306 306 308 310 312 312 313 313 313 313 309 304 304 305 305 304 304 303 302 301 301 301 302 301 301 301 301 301 300 300 300 300 300 300 300 300 300 300
302 303 303 303 303 303 303 304 304 304 304 304 306 309 309 308 313 320 321 322 326 327 326 326 326 327 328 330 332 333 333 332 332 331 330 329 330 331 331 331 331 331 330 331 325 313 306 305 305 305 304 305 304 303 303 303 304 306 308 306 305 306 309 311 312 313 313 313 312 310 305 303 305 305 304 304 303 302 301 301 301 301 301 301 301 301 300 301 301 300 300 300 300 300 300 300 300
302 303 303 302 303 303 303 303 303 304 304 304 308 310 308 307 313 320 322 322 325 326 327 326 326 327 327 330 331 332 332 332 331 331 330 328 328 330 331 331 331 331 331 330 321 310 306 305 304 304 304 304 303 302 302 303 304 305 305 305 305 305 308 311 312 313 313 313 312 310 305 303 305 305 304 304 303 302 301 301 301 301 301 301 301 301 301 301 301 301 301 300 300 300 300 300 300
303 303 303 302 302 302 302 303 303 304 306 306 310 313 313 313 316 318 318 321 325 325 326 326 325 327 327 329 330 330 330 330 330 330 330 329 328 329 331 331 331 331 331 328 319 309 305 305 305 304 304 304 302 302 303 302 302 302 303 304 304 304 306 310 312 312 313 313 312 310 306 303 304 305 304 304 303 302 301 301 301 301 301 301 301 301 301 301 301 301 301 301 301 301 301 300 300
303 302 302 303 303 303 303 303 303 304 307 306 309 314 313 314 317 318 316 317 323 324 325 326 325 326 327 328 329 329 329 329 329 329 330 329 329 329 330 331 332 331 329 325 316 307 305 305 304 304 306 306 303 303 303 301 301 303 303 302 302 302 305 309 311 312 312 313 312 311 306 303 304 305 304 304 303 301 301 301 301 301 301 301 301 301 301 301 301 301 301 301 301 301 301 300 300
303 301 302 304 304 306 305 304 304 304 305 303 309 312 309 312 318 319 317 317 322 323 323 325 325 326 327 328 328 328 328 328 328 328 328 328 328 329 330 330 329 331 329 322 312 306 305 306 304 304 307 306 304 304 303 302 303 305 302 300 301 302 304 309 311 311 312 312 312 311 307 303 304 305 304 304 303 301 301 301 301 301 301 301 301 301 301 301 301 301 301 301 301 301 301 300 300
303 301 302 304 304 307 308 305 304 305 304 302 310 311 307 315 320 319 319 318 322 322 322 324 324 325 327 327 327 327 327 327 328 327 326 326 327 328 329 327 326 328 328 320 310 306 305 306 305 304 306 306 304 304 304 305 306 305 301 301 303 302 303 307 310 311 312 312 312 310 307 303 303 305 304 304 303 301 301 301 301 300 301 301 301 301 301 301 301 301 301 301 301 301 301 300 300
305 302 303 304 303 306 307 304 304 306 306 306 311 311 309 313 317 319 320 320 322 322 321 323 323 325 326 326 327 326 327 327 326 326 325 326 326 327 328 326 326 327 324 316 308 306 305 303 303 304 306 307 305 305 304 306 307 305 302 303 304 301 301 306 309 311 312 312 311 310 306 303 303 304 304 303 303 301 300 301 301 300 301 301 301 301 301 301 301 301 301 301 301 301 301 301 300
304 302 303 304 304 305 305 304 304 305 307 310 312 313 314 315 315 317 320 320 321 321 321 322 323 326 326 326 327 326 326 326 325 325 325 325 326 327 327 326 327 325 322 315 308 306 305 303 303 306 308 308 306 305 305 306 308 306 304 305 302 299 300 304 308 311 311 312 311 309 306 303 303 304 304 303 302 301 301 300 301 300 300 301 301 301 301 301 301 301 301 301 302 301 301 301 300
304 304 304 303 303 303 304 306 305 305 308 310 311 312 314 316 316 318 320 320 321 321 321 323 324 326 326 326 326 325 326 325 325 325 324 325 325 326 327 326 326 323 319 315 310 307 305 304 306 308 309 309 307 305 305 307 308 307 307 305 300 298 299 303 307 310 311 311 311 309 306 303 303 304 304 303 302 301 301 300 301 300 300 300 301 301 301 301 301 301 301 301 302 301 301 301 300
305 305 304 304 303 303 304 305 306 308 310 310 311 312 312 313 315 317 319 320 321 321 322 323 324 325 325 325 324 325 326 325 325 324 323 324 324 326 326 324 324 321 317 313 310 308 305 307 310 310 310 309 306 305 307 308 308 309 307 304 300 298 298 301 306 310 311 311 310 309 307 303 303 304 304 303 302 301 300 300 300 300 300 300 301 301 301 301 301 301 301 302 302 301 301 301 300
303 303 303 303 303 303 304 304 305 307 309 309 309 310 311 313 313 315 319 321 321 321 322 323 324 325 324 324 324 324 324 324 323 323 323 323 323 325 324 322 322 319 316 312 311 309 306 309 312 310 310 310 306 305 308 308 309 309 307 303 301 298 298 300 305 309 311 311 310 309 307 303 302 304 303 303 302 301 300 300 300 300 300 300 301 301 300 301 301 301 301 302 302 301 301 301 300
302 304 303 302 302 302 303 304 305 305 307 309 310 309 309 311 312 313 317 320 320 321 322 322 323 324 324 323 323 323 321 321 322 321 322 322 323 324 323 322 320 318 315 312 312 310 308 311 314 312 311 310 307 307 308 308 310 310 307 304 301 298 298 299 304 309 311 311 310 309 306 303 302 304 303 303 302 301 300 300 300 300 300 300 300 300 300 301 301 301 301 302 301 301 301 301 300
302 302 303 302 302 302 302 303 304 305 307 308 309 309 309 310 312 312 314 319 320 320 321 322 322 322 322 322 321 320 318 318 319 319 320 321 323 322 322 321 320 320 317 315 315 312 310 312 314 313 310 308 307 307 308 309 311 310 306 303 299 297 297 298 304 310 311 311 310 308 306 303 302 303 303 303 302 301 300 300 300 300 300 300 300 300 301 301 301 301 301 302 302 301 301 301 300
302 302 302 302 302 302 302 303 303 304 306 307 308 307 308 310 312 312 314 318 319 319 321 321 322 321 320 320 319 317 316 316 316 317 319 321 322 322 321 320 320 320 319 318 315 311 311 313 312 312 309 307 308 309 309 310 311 309 304 300 297 296 296 298 304 310 311 311 310 308 306 302 302 303 303 303 302 301 300 300 300 300 299 300 300 300 301 301 301 301 301 302 302 301 301 300 300
303 302 303 303 302 302 304 304 304 305 306 308 308 307 307 310 312 312 313 316 318 319 320 321 321 321 320 319 318 317 317 317 316 316 318 319 320 320 320 320 320 319 319 318 313 311 313 313 312 311 309 309 309 309 310 311 311 307 301 298 297 296 296 297 303 310 312 311 310 308 305 302 302 303 303 303 302 301 300 300 300 299 299 299 300 300 300 300 300 301 301 302 302 301 301 300 300
303 303 303 303 302 302 303 304 304 306 307 307 308 307 307 309 311 312 313 316 318 319 319 320 321 320 320 318 316 317 318 318 317 316 317 318 319 320 320 320 320 319 319 316 314 315 316 313 312 312 312 312 311 310 310 311 310 305 300 298 297 296 296 299 305 311 312 311 309 308 305 303 302 303 303 303 302 301 300 300 300 299 299 299 299 300 300 300 300 301 301 301 302 301 301 300 300
304 304 303 303 302 302 303 303 303 305 306 307 307 306 307 310 311 312 314 316 317 318 319 319 320 319 318 316 315 316 316 316 317 317 318 318 319 319 319 320 319 319 318 315 316 318 317 314 313 313 313 313 312 311 311 311 310 305 300 298 297 297 297 301 307 311 311 311 309 308 306 302 302 303 303 302 302 301 300 300 299 299 299 299 299 300 300 300 300 300 301 301 301 301 301 300 300
306 306 305 303 302 303 303 303 304 305 306 307 308 307 307 311 312 311 314 316 316 318 319 318 319 318 317 316 315 316 316 315 315 316 318 319 319 319 320 320 320 319 317 316 317 318 316 315 314 314 314 313 312 311 312 311 309 305 301 298 296 297 298 301 307 311 312 311 309 308 306 303 302 303 303 303 302 301 300 299 299 299 299 299 299 299 299 300 300 300 301 301 301 301 300 300 300
307 308 308 304 303 303 303 304 305 305 306 307 307 307 308 310 312 313 314 315 317 318 319 318 318 317 317 316 316 316 316 316 315 316 317 319 319 320 321 321 320 319 317 318 318 317 317 315 314 314 315 314 313 312 312 310 308 305 301 297 296 297 298 300 305 310 311 310 309 308 306 304 303 303 303 303 302 301 300 299 299 299 299 299 299 299 299 299 300 300 301 301 301 301 300 300 300
308 309 308 306 304 304 303 304 305 306 307 308 308 308 308 309 312 315 314 315 316 317 318 319 318 317 316 316 316 316 316 316 317 317 318 319 320 321 321 321 320 319 319 319 319 318 317 316 315 314 314 314 313 312 312 310 308 306 301 297 296 296 298 301 306 311 311 310 309 308 307 306 305 304 303 303 302 302 300 299 299 299 299 298 299 299 299 299 300 300 301 301 301 300 300 300 300
308 307 308 307 304 304 305 305 306 307 307 308 309 308 308 310 313 315 315 315 316 317 318 318 318 317 317 316 315 316 315 316 317 318 319 320 320 320 320 319 319 319 319 319 319 319 318 317 316 314 314 314 313 312 311 309 308 305 302 300 298 297 299 303 308 312 311 310 310 308 307 307 306 306 305 304 303 302 301 300 299 299 298 298 298 299 299 299 300 300 300 301 301 300 300 300 300
307 307 308 309 307 306 306 306 307 308 309 310 309 309 309 311 314 315 315 315 315 317 319 319 318 317 317 317 316 315 315 315 317 318 318 318 318 318 319 319 318 319 319 319 319 320 319 317 316 315 315 314 312 311 310 309 306 303 303 302 299 298 300 304 310 312 312 311 310 309 308 307 307 307 306 305 303 302 302 300 299 299 298 298 298 299 299 299 300 300 300 300 300 300 300 300 300
306 307 309 311 310 309 309 309 309 309 311 311 310 310 309 311 314 315 314 315 316 317 319 319 318 317 317 317 316 316 316 316 317 317 316 316 316 317 318 318 318 318 319 319 320 319 318 317 316 315 315 314 312 311 311 310 306 303 303 301 298 299 301 305 310 312 311 311 310 309 308 307 307 307 308 306 304 303 302 301 300 299 298 298 298 299 299 299 299 300 300 300 300 300 300 300 299
306 307 309 311 312 312 312 312 311 311 311 312 311 311 311 312 315 316 314 316 318 317 318 318 318 318 317 316 316 315 316 316 316 316 317 316 317 318 318 318 318 318 319 319 319 320 319 318 316 315 316 315 313 312 313 312 308 304 301 300 301 302 302 305 309 310 311 310 310 309 309 307 307 308 308 308 306 304 302 302 300 299 298 298 298 298 299 299 300 300 300 300 300 300 300 300 299
308 308 309 312 313 313 314 313 313 313 313 313 312 311 313 315 316 316 316 315 315 315 317 318 318 318 317 316 315 315 315 315 315 316 317 317 317 318 318 319 319 319 319 319 319 320 319 318 317 316 316 316 314 314 315 312 308 304 301 302 304 305 304 306 308 310 310 310 310 309 309 308 307 307 308 308 307 305 303 302 300 299 298 298 298 298 299 299 299 300 300 300 300 300 300 300 299
308 308 309 312 314 314 315 315 316 316 315 314 312 312 315 317 315 314 312 310 310 313 316 318 318 318 317 316 315 315 314 314 315 316 316 317 317 318 319 319 320 320 319 319 319 320 319 319 318 317 316 316 315 315 316 313 309 305 302 303 306 306 305 306 308 309 310 309 310 309 309 308 308 307 307 308 307 306 304 302 300 299 298 298 298 298 299 299 299 300 300 300 300 300 300 300 299
308 307 309 311 311 311 313 315 314 315 317 316 314 314 315 314 313 311 309 309 310 313 316 318 318 317 317 316 316 315 315 315 315 315 316 317 317 318 319 320 320 321 320 320 319 319 319 319 319 319 317 316 316 317 317 314 312 308 304 304 307 307 307 307 307 309 310 310 310 310 309 308 308 308 307 307 307 306 305 303 301 300 299 298 298 298 299 299 299 299 299 299 299 299 300 299 299
308 308 310 309 306 307 312 315 314 314 317 316 315 316 314 313 313 311 311 315 315 314 315 316 317 317 317 316 316 316 316 316 316 316 316 317 318 318 319 319 320 321 320 320 320 319 319 319 319 319 318 317 317 317 317 315 314 310 307 308 309 309 308 308 307 309 310 310 310 310 309 308 308 309 308 307 307 307 306 303 301 300 299 298 298 298 298 299 299 299 299 299 299 299 299 299 299
307 309 308 306 306 307 310 315 317 316 317 316 314 315 314 314 315 312 312 315 315 314 315 315 315 317 317 316 316 316 316 316 315 315 316 317 318 319 319 320 320 320 320 320 320 319 318 319 319 320 319 318 317 318 317 316 314 312 312 312 312 311 310 309 308 308 309 310 311 310 309 308 307 308 309 308 306 307 306 304 302 301 299 298 298 298 298 299 299 299 299 299 299 299 299 299 299
305 306 306 306 309 311 310 314 317 317 318 316 314 314 314 314 314 311 310 311 312 314 315 315 316 316 316 316 316 316 316 315 314 314 316 316 317 318 319 319 319 319 319 319 319 319 318 319 319 319 319 318 317 318 318 316 315 314 315 315 314 313 312 311 309 308 309 310 311 311 309 307 307 308 309 308 307 307 307 305 303 301 300 299 298 298 299 299 299 299 299 299 298 299 299 299 299
304 305 304 305 307 309 309 310 312 314 317 316 315 315 315 313 311 310 309 307 308 311 314 316 316 315 316 316 316 316 315 315 314 313 315 316 317 317 317 318 318 318 319 319 319 319 318 319 319 319 318 317 317 318 318 317 316 315 316 315 314 314 312 312 311 310 309 310 311 311 309 307 306 307 308 308 308 308 307 306 304 302 300 299 299 298 299 299 299 299 299 298 298 298 298 299 298
306 305 304 304 305 306 308 308 307 309 315 317 316 316 314 310 310 309 306 305 306 307 311 316 316 315 316 316 315 316 315 314 314 313 314 316 316 316 316 317 317 317 318 319 319 319 319 319 319 319 319 318 318 318 318 318 317 317 316 315 315 313 312 312 312 312 310 310 311 311 309 307 307 307 307 308 308 308 307 306 305 303 301 300 299 299 299 299 299 299 298 298 298 298 298 298 298
305 305 304 303 304 306 309 311 308 307 311 313 314 318 314 308 308 307 304 304 305 305 308 314 317 316 316 316 316 316 315 315 314 314 315 315 314 315 316 316 317 317 318 318 318 319 319 319 319 319 319 318 318 319 319 319 319 318 317 316 315 314 312 312 314 313 312 311 311 311 309 309 308 306 306 307 308 308 307 306 306 304 302 300 299 299 299 299 299 298 298 298 298 298 298 298 298
Wind_Speed
8 9 9 8 6 6 5 1 2 2 1 3 3 1 3 3 1 1 0 2 1 4 8 11 23 25 10 6 9 4 5 11 6 5 3 4 17 26 31 30 27 27 26 24 22 19 16 15 16 16 16 15 13 11 9 7 7 8 10 12 13 16 17 18 18 18 16 16 16 16 16 16 15 15 16 16 16 16 16 15 15 15 16 17 17 17 17 17 17 17 17 17 17 18 18 19 19
6 7 7 7 5 6 6 5 1 1 1 5 3 3 3 2 1 3 4 4 2 7 14 21 27 18 6 10 10 6 6 10 5 5 6 14 27 30 31 30 28 28 27 24 22 20 17 16 16 16 16 15 13 11 9 7 7 8 10 12 13 16 17 18 18 17 16 16 15 15 15 15 15 15 16 16 16 15 15 15 15 16 16 16 17 17 17 16 16 16 16 17 17 18 18 19 19
4 4 5 5 5 5 6 5 2 2 4 7 4 2 1 1 3 5 5 5 5 15 21 26 22 11 8 11 7 3 5 8 8 10 13 23 32 33 32 29 28 28 28 25 22 20 18 17 17 16 16 15 13 11 9 7 7 8 10 12 13 15 17 18 18 17 16 15 15 15 15 15 15 15 15 15 15 15 14 14 15 16 16 16 16 16 16 16 16 16 16 17 17 17 18 18 18
4 3 3 4 5 4 4 2 2 4 6 5 3 3 2 3 5 3 2 7 15 20 19 22 15 7 6 5 6 4 5 8 10 14 19 28 34 35 32 30 29 29 28 25 22 20 18 17 16 17 16 15 13 11 9 8 7 8 10 11 13 15 17 17 17 17 16 15 14 15 15 14 14 14 14 14 15 14 14 14 15 15 15 16 16 16 16 15 15 15 16 17 17 17 18 18 17
6 4 2 2 3 2 2 1 2 4 7 4 2 4 4 5 4 2 8 15 19 13 13 19 9 6 6 5 9 5 7 11 11 15 23 31 34 35 32 31 30 29 27 24 23 20 17 17 17 17 17 15 14 12 10 8 7 8 9 11 13 14 16 17 17 17 16 14 14 14 14 14 14 14 14 14 14 14 14 14 14 15 15 15 15 15 15 15 15 15 16 17 17 17 17 17 17
8 5 4 2 2 1 2 1 2 5 6 4 3 3 3 4 3 7 12 15 11 4 12 15 8 10 6 5 9 6 12 14 13 17 25 33 35 34 32 32 30 28 26 24 23 20 18 17 17 18 17 16 14 12 10 8 8 8 9 10 12 14 15 16 16 17 16 14 14 14 14 14 14 13 13 14 14 14 13 13 14 14 14 15 15 15 15 15 15 15 16 17 17 17 17 17 17
8 6 4 2 1 1 2 4 4 5 5 5 5 3 4 4 6 11 11 11 5 5 11 9 11 13 3 4 7 9 15 14 15 20 28 35 35 34 33 32 31 28 26 25 23 20 19 18 18 18 17 17 15 13 10 9 8 8 9 10 11 13 14 15 16 16 16 14 14 14 14 14 13 13 13 14 13 13 13 13 13 14 14 14 14 14 14 14 14 15 16 16 17 16 17 17 18
8 6 3 2 1 1 1 4 5 4 4 4 5 5 8 6 10 13 8 7 4 6 12 10 15 10 1 6 6 11 16 15 17 22 31 35 33 33 32 32 31 29 27 26 24 21 19 18 18 18 18 17 15 13 10 9 8 8 9 9 10 12 13 15 16 16 16 14 14 14 14 13 13 13 13 13 13 13 12 12 13 13 13 14 14 14 14 14 14 15 16 16 16 16 16 17 18
9 6 2 2 1 1 2 3 5 4 4 4 4 7 9 9 13 15 8 5 4 6 13 16 14 7 6 8 6 14 16 15 18 24 33 34 34 33 32 33 31 31 28 27 25 22 20 19 19 18 18 17 15 13 11 9 8 8 8 9 10 11 12 14 15 16 16 14 14 14 14 13 13 13 13 13 12 12 12 12 13 13 13 14 14 14 13 13 14 14 15 15 16 16 16 17 18
9 7 3 1 2 3 5 4 4 3 3 5 5 7 6 9 13 15 12 6 4 5 12 15 8 8 11 8 9 14 16 16 19 27 35 34 34 33 31 32 30 30 29 28 25 22 21 20 19 19 18 17 15 14 12 10 8 8 8 8 9 10 11 13 15 16 16 14 14 14 13 13 13 12 12 12 12 12 11 12 12 13 13 13 13 13 12 12 13 14 15 15 16 16 16 17 17
6 5 4 1 3 5 7 6 7 3 1 2 5 9 7 10 13 12 11 5 6 8 14 12 5 12 12 7 12 15 18 17 20 30 35 35 34 32 32 31 30 29 29 28 25 24 22 21 20 19 18 17 16 14 12 10 8 8 7 7 8 9 10 12 14 15 15 14 13 13 13 13 12 11 11 11 11 11 11 12 12 12 12 13 13 12 12 12 13 14 15 15 16 16 16 16 17
4 2 3 2 5 6 5 6 8 5 3 1 3 9 10 12 12 9 10 8 10 10 16 15 8 15 8 4 13 16 22 19 21 31 34 35 33 32 32 30 29 28 28 27 25 25 23 22 21 20 19 18 17 15 12 10 8 8 7 7 7 8 10 11 13 15 15 14 13 13 13 12 11 10 10 11 11 11 11 11 12 12 12 12 12 11 11 11 13 14 15 15 15 15 16 16 16
4 2 3 3 4 4 5 4 5 4 5 4 4 9 11 13 12 13 16 11 12 9 14 19 14 15 6 5 15 19 24 22 24 32 34 34 33 32 31 30 28 28 28 27 26 25 23 23 22 21 20 19 17 15 13 11 9 8 7 6 6 8 9 10 12 14 15 14 12 12 12 12 11 10 10 10 11 11 11 11 11 11 11 12 11 11 11 12 13 14 14 15 15 15 15 16 16
3 2 3 2 1 3 5 4 3 5 5 4 8 10 10 11 11 18 18 8 12 12 14 20 17 13 6 7 14 23 27 26 28 32 34 34 33 33 31 30 29 30 29 27 26 24 24 23 22 22 21 20 18 16 14 11 9 8 7 6 6 7 8 9 11 13 14 14 12 11 11 11 11 10 10 10 11 10 10 10 10 11 11 11 11 11 11 12 13 13 14 14 14 15 15 15 15
3 2 2 2 2 2 5 5 4 6 5 3 8 12 11 11 11 17 18 10 13 16 12 17 19 10 8 12 16 28 33 29 31 33 35 33 33 33 31 30 30 32 29 26 25 24 25 23 23 22 21 20 17 16 14 12 10 8 7 6 6 6 7 8 10 12 14 13 12 11 11 11 11 10 10 10 10 10 10 10 10 10 10 10 10 11 12 12 12 12 13 14 14 14 15 15 15
2 1 1 2 3 3 3 3 3 4 5 3 8 13 11 11 13 12 14 14 10 15 13 15 22 10 11 20 21 31 36 33 35 34 35 34 36 35 31 31 32 32 29 27 26 25 25 23 23 23 21 19 17 16 14 13 10 8 7 6 5 6 6 7 9 11 13 13 12 11 11 11 11 10 10 10 10 9 9 9 9 10 10 10 10 11 12 12 12 12 13 13 13 13 14 14 15
2 0 1 3 3 4 3 1 4 3 3 4 8 15 11 8 12 10 10 14 10 16 16 15 24 15 12 19 20 31 37 37 38 36 38 37 39 37 33 34 33 33 30 28 26 26 25 23 24 23 22 19 17 16 14 13 10 8 7 5 5 5 6 6 8 10 12 13 12 11 11 11 11 10 9 9 9 9 8 8 9 10 10 10 10 11 11 11 11 12 12 13 13 13 13 14 14
2 1 2 4 1 2 1 1 2 3 1 5 6 10 10 9 11 11 8 9 11 16 16 16 22 16 13 15 18 32 40 41 41 40 42 40 42 39 36 38 36 35 32 29 28 26 26 24 24 23 22 20 18 16 14 13 11 9 7 5 5 4 5 6 7 9 11 12 12 11 11 11 10 10 9 9 9 9 8 8 9 10 10 10 10 11 11 11 11 12 12 12 12 12 13 13 14
1 2 1 3 1 3 4 5 9 7 5 13 14 11 7 9 12 15 9 6 13 13 9 12 17 15 13 15 23 37 42 44 43 44 45 44 45 41 39 40 38 36 33 31 29 27 26 25 25 23 21 20 19 17 15 13 11 9 7 6 5 4 4 5 7 8 10 11 12 11 11 11 10 9 9 9 9 8 8 8 8 9 9 10 10 10 10 10 11 11 11 11 11 12 12 13 13
1 1 2 2 3 7 7 9 12 10 12 14 15 19 15 10 9 12 10 8 13 12 13 13 15 18 18 19 32 41 44 46 45 45 46 45 45 43 43 42 39 37 34 32 29 28 27 26 25 23 22 20 19 17 16 14 11 9 7 6 5 4 4 4 6 7 9 11 11 10 10 10 9 9 9 9 9 8 7 7 8 9 9 9 10 10 10 10 10 11 11 11 11 11 12 13 14
4 2 2 3 6 5 10 17 16 14 15 14 15 17 13 12 12 9 9 7 7 12 23 24 23 27 25 26 38 44 46 47 46 46 46 45 44 44 42 39 37 35 33 32 30 28 27 27 26 25 23 21 19 18 16 13 11 10 7 6 5 4 3 4 5 6 8 10 11 10 10 9 9 9 9 9 8 7 7 7 7 8 9 9 10 10 9 10 10 10 10 10 11 12 12 13 14
4 1 1 5 8 3 14 23 19 18 18 15 15 12 13 17 15 10 10 8 7 16 27 29 30 33 30 32 41 45 47 49 48 47 47 46 46 44 41 38 38 34 32 33 32 29 28 28 27 26 24 22 20 17 15 13 11 9 8 6 5 4 3 4 4 5 6 9 11 10 10 9 10 10 10 9 8 7 6 6 6 8 9 9 9 9 9 9 9 9 9 10 11 12 12 13 13
3 3 4 9 8 4 15 22 22 23 18 14 13 12 17 18 14 12 13 14 12 19 29 29 29 33 33 35 43 47 48 50 50 50 49 48 48 47 44 43 42 37 33 34 32 29 29 29 28 27 25 23 21 17 15 13 12 10 8 6 5 4 3 3 4 4 6 9 10 11 10 9 10 10 9 8 7 6 6 6 7 8 9 9 9 9 9 9 9 9 9 10 11 12 12 13 13
1 3 6 8 9 9 15 20 23 24 20 16 15 14 15 13 11 11 12 17 16 16 23 28 26 30 35 38 46 50 51 53 52 52 50 49 49 48 46 44 42 38 35 34 33 31 30 31 29 27 24 22 20 18 16 13 11 10 7 6 4 4 3 3 3 3 5 8 10 10 10 9 10 9 8 7 7 6 6 6 7 8 9 9 8 8 9 9 9 9 10 11 11 12 12 13 13
2 3 6 8 11 14 16 19 22 24 23 21 17 14 14 14 14 12 15 18 18 16 17 23 24 28 36 41 48 51 52 53 51 50 48 47 48 47 47 45 43 40 37 35 34 32 32 32 30 27 25 22 19 17 16 13 11 10 8 5 3 3 3 3 2 2 5 8 10 10 10 10 9 9 7 6 6 6 5 6 7 8 8 8 8 8 8 8 9 9 10 11 11 12 12 13 13
1 3 9 10 14 17 18 18 20 23 25 22 17 13 16 18 14 12 17 19 19 18 15 18 21 28 37 42 48 51 52 51 49 49 47 47 47 48 48 46 45 42 38 37 35 34 34 33 30 28 25 22 19 17 15 13 11 9 7 5 3 3 2 2 1 2 5 7 8 9 9 9 9 8 7 6 6 6 5 6 7 7 8 8 8 8 8 9 9 10 10 11 11 11 12 13 13
4 9 12 13 17 19 17 17 19 23 24 21 13 11 19 21 12 6 11 14 16 18 15 15 20 29 38 43 47 49 50 50 49 49 48 46 47 49 49 48 47 44 40 39 37 36 36 34 32 29 27 23 19 16 14 12 10 8 7 7 5 4 2 2 1 2 4 6 7 9 9 9 8 8 7 6 6 5 5 5 6 7 7 8 8 8 8 9 9 10 10 10 11 11 12 12 13
8 11 11 13 16 16 16 14 17 17 14 15 10 10 17 16 10 9 13 14 12 15 16 16 20 29 38 41 43 44 45 46 47 49 50 50 49 50 51 50 49 45 42 40 38 38 38 36 34 32 28 23 20 17 15 13 11 11 9 8 7 5 4 3 1 2 3 5 7 8 9 8 8 9 8 6 6 5 4 5 6 7 7 7 7 8 8 8 9 10 10 11 11 12 12 13 13
11 7 5 10 9 9 13 13 18 13 7 12 10 9 13 12 7 7 15 19 13 13 16 18 21 29 36 38 39 40 41 43 44 48 51 51 51 51 51 51 50 47 43 40 40 39 39 37 35 33 29 26 24 21 19 16 14 13 11 8 7 6 5 3 2 2 3 4 6 8 8 9 9 9 7 6 5 5 4 5 6 6 6 7 7 7 8 8 9 10 11 11 12 12 13 13 13
11 4 1 5 6 6 10 11 16 13 11 16 8 6 11 10 9 8 12 19 15 12 15 18 22 29 35 36 36 36 38 42 45 47 48 49 49 50 50 51 49 46 43 40 41 40 40 38 35 32 31 30 27 25 23 19 17 15 12 10 7 6 5 4 2 2 2 3 5 7 8 9 9 8 7 5 5 4 4 4 6 6 6 6 7 7 8 8 9 10 11 11 11 12 12 12 13
5 4 1 1 3 5 5 5 6 6 13 20 10 8 10 4 6 11 15 19 17 15 17 19 24 29 33 34 33 33 35 41 44 44 45 46 48 48 49 49 46 44 43 41 41 41 40 38 36 34 33 32 29 27 25 22 20 17 15 12 9 6 6 5 3 1 1 3 5 7 8 9 9 8 7 5 5 4 4 4 5 6 6 6 7 7 8 8 9 10 11 12 12 12 12 13 13
1 2 3 1 2 4 7 8 5 5 9 14 11 7 7 5 7 11 16 18 19 19 19 21 25 29 33 33 31 33 35 38 41 42 43 45 47 47 48 46 43 43 43 42 42 42 41 40 37 34 33 32 30 28 26 23 21 18 16 14 11 9 8 6 3 2 1 3 5 7 8 9 8 8 7 5 5 4 3 3 5 5 5 5 6 6 7 8 9 9 10 11 12 12 13 13 13
1 2 3 3 3 3 6 7 7 8 5 7 11 6 2 3 7 12 15 14 17 18 19 22 25 29 32 32 32 35 37 38 39 41 43 44 46 47 47 45 43 43 43 43 43 43 43 40 36 33 33 32 31 29 26 23 21 19 17 15 12 10 9 6 4 2 1 2 4 6 8 8 8 8 7 5 5 4 3 3 4 4 4 4 5 6 7 7 8 9 10 11 12 12 13 13 13
2 1 3 4 4 3 4 5 6 5 5 6 10 8 6 4 2 7 14 15 17 18 18 21 25 27 29 31 33 36 39 40 40 42 43 44 45 46 46 44 43 43 43 42 43 43 42 38 35 35 35 33 31 29 26 23 21 19 18 16 13 10 9 7 4 3 1 2 4 6 7 8 8 7 7 6 5 4 2 2 3 4 4 4 5 6 6 7 8 9 10 11 11 12 12 13 13
3 3 3 3 3 5 6 6 4 0 3 6 7 8 9 9 6 6 11 14 18 19 19 21 25 27 27 30 34 37 42 43 42 42 42 43 44 45 45 43 43 43 43 43 42 42 41 38 36 36 35 33 31 29 26 24 21 20 19 17 14 11 10 7 5 3 1 2 3 6 7 8 7 7 7 6 5 3 2 2 3 3 3 4 4 5 6 7 8 10 11 11 12 13 13 13 13
6 4 4 4 4 6 6 7 5 2 3 6 7 8 8 9 11 9 10 14 17 19 19 20 25 26 26 30 35 39 42 42 41 41 41 42 43 44 44 42 42 42 42 43 42 42 42 38 36 36 34 33 32 30 27 24 22 21 20 17 14 11 10 8 5 3 1 2 3 5 7 8 7 7 6 6 4 3 2 2 3 3 3 3 4 5 6 6 8 9 10 12 12 13 13 14 14
4 2 3 5 5 7 5 6 5 1 1 5 6 8 7 9 10 11 14 14 16 19 19 20 22 22 25 31 35 37 37 37 39 39 40 40 41 43 43 42 41 41 42 42 42 43 41 37 36 36 35 34 32 30 28 24 21 20 19 16 14 11 9 7 5 4 2 2 3 5 7 8 7 6 6 5 4 3 2 2 2 2 3 3 4 4 5 6 7 9 10 11 12 12 12 13 13
5 4 5 6 7 9 8 6 6 2 1 5 6 7 7 8 9 12 15 12 13 19 19 19 21 20 24 31 33 33 32 34 37 37 38 39 41 41 41 41 41 41 42 42 43 43 39 37 37 35 35 35 32 30 27 22 20 19 17 14 12 10 10 8 6 5 2 2 3 5 7 7 6 6 6 5 4 3 2 2 2 2 3 3 3 4 5 7 9 9 10 11 11 12 12 13 12
7 6 5 7 5 5 8 7 6 2 2 5 8 8 8 8 9 11 14 12 14 21 20 20 22 19 23 30 31 31 31 31 33 35 38 39 40 41 41 40 40 40 41 41 42 39 36 37 38 36 36 35 32 29 24 20 19 18 16 14 11 11 10 8 7 5 3 2 3 5 6 6 5 5 6 5 4 3 2 1 1 2 2 3 4 5 6 8 9 9 10 11 12 13 13 13 12
7 6 6 9 6 3 5 5 2 3 5 5 6 6 6 7 8 9 14 16 16 19 21 22 24 23 25 31 33 35 36 35 33 35 37 38 39 40 40 40 40 40 40 41 40 36 34 37 38 37 36 33 31 27 23 21 20 19 17 15 12 12 11 10 8 5 3 2 3 5 6 6 5 5 5 5 4 4 2 2 1 2 3 4 4 5 7 8 9 9 10 11 12 13 13 13 13
7 9 9 11 8 6 7 4 2 1 3 6 4 4 5 5 8 7 9 14 13 15 18 19 22 23 24 28 31 34 37 38 37 36 36 38 39 40 40 40 40 40 40 40 37 34 35 37 36 35 32 30 28 25 23 22 21 20 18 16 14 14 13 10 7 5 3 3 3 4 5 5 4 5 5 5 5 4 3 2 2 2 3 4 5 5 7 8 9 10 10 11 12 13 14 14 14
6 10 13 15 10 7 8 3 3 3 3 5 5 2 4 4 9 8 5 9 11 12 13 15 18 19 20 25 29 31 33 34 35 37 37 38 39 40 40 40 40 40 40 38 35 35 36 35 35 33 31 29 27 24 22 22 22 21 18 15 14 13 11 8 5 4 3 3 4 4 4 4 4 4 5 5 5 4 3 2 2 2 3 5 5 6 7 8 9 10 10 11 12 13 14 15 14
5 6 12 16 11 8 8 3 2 2 3 2 5 4 4 2 6 9 8 10 11 10 9 11 17 20 21 26 29 31 33 32 32 34 36 37 38 39 40 40 40 39 38 36 36 36 35 33 32 30 29 28 26 23 22 24 24 21 18 15 13 10 8 6 5 5 3 3 4 3 3 3 4 4 6 6 6 5 4 3 2 3 4 5 6 6 7 8 9 10 10 12 13 14 14 14 14
4 1 8 12 11 11 9 6 5 4 3 2 4 6 3 3 5 7 10 11 11 11 9 9 16 20 22 26 30 32 34 34 33 34 35 37 38 39 40 40 40 38 36 36 37 36 34 33 32 30 28 27 25 22 22 25 24 21 19 16 13 10 8 7 8 7 4 3 3 2 2 2 4 5 6 7 6 6 4 3 3 4 4 6 7 7 7 8 9 10 11 12 13 14 14 14 13
3 1 4 8 9 9 7 6 6 5 3 3 5 6 3 4 3 5 10 12 12 13 13 10 15 20 21 25 29 30 32 33 34 35 35 36 37 38 39 38 37 36 35 36 36 34 34 33 32 31 29 27 25 23 24 26 23 21 19 17 14 12 10 10 11 9 7 5 3 2 1 2 4 6 7 7 7 7 6 5 4 4 5 6 7 7 7 8 9 10 11 12 13 14 15 15 14
2 3 1 4 4 5 5 5 5 4 4 5 5 7 4 3 2 5 9 11 12 12 11 10 16 22 23 24 28 28 30 31 32 33 34 35 36 37 36 35 35 34 34 34 32 32 33 32 31 30 28 28 27 25 26 27 23 22 22 20 16 13 12 13 12 10 8 6 4 3 2 2 4 6 7 8 8 8 7 6 5 5 6 7 7 7 7 8 9 10 11 12 13 14 15 16 15
3 3 2 3 3 4 4 4 4 3 4 5 6 9 6 2 2 6 7 9 11 10 9 10 13 20 22 24 27 29 30 31 30 31 31 32 33 32 31 31 31 30 30 29 29 31 32 31 30 28 28 29 28 28 28 27 24 23 23 20 17 15 15 15 13 11 9 7 5 3 2 1 3 5 7 8 8 8 8 7 6 5 6 7 7 7 7 7 9 10 11 12 13 14 15 16 16
5 2 2 2 2 3 2 3 3 3 4 4 6 11 8 4 3 5 6 7 10 10 9 10 12 17 22 25 28 30 30 30 29 30 30 31 30 28 27 27 28 27 27 27 29 31 31 31 31 29 29 30 29 29 28 26 25 24 23 20 18 17 17 16 15 13 11 8 7 5 3 2 1 4 7 8 8 8 8 7 7 6 6 7 7 6 6 7 8 9 11 12 13 14 15 16 16
4 2 2 2 1 1 2 2 2 3 4 3 5 9 6 4 4 4 7 7 9 10 12 15 18 23 26 27 29 30 29 29 30 30 30 30 29 28 27 28 27 27 27 27 29 29 30 31 31 31 31 30 30 30 27 26 26 25 23 21 20 19 19 18 17 15 14 12 10 7 5 4 2 2 6 8 8 8 8 8 7 6 6 6 7 6 6 7 8 9 10 12 13 14 15 15 16
3 3 2 2 2 2 2 2 2 3 3 1 5 6 2 2 2 4 7 6 5 10 14 18 20 22 24 25 27 28 28 29 30 30 30 29 29 28 28 27 25 25 26 27 28 29 30 31 31 31 31 30 31 29 27 27 27 25 23 22 21 20 19 19 18 17 15 14 13 10 8 6 5 2 4 6 7 8 8 7 7 6 6 6 6 6 6 7 7 9 10 11 12 13 14 15 15
3 2 2 2 1 1 2 2 1 1 1 2 6 4 2 2 1 3 5 3 1 6 11 15 17 18 20 21 24 25 26 27 28 29 29 29 28 27 26 25 24 24 26 26 28 29 30 30 31 32 31 31 32 30 28 28 27 25 24 23 22 21 19 19 19 18 17 17 16 13 10 9 7 4 2 4 6 7 8 7 7 6 6 6 7 7 6 7 7 8 9 11 12 13 13 14 15
1 1 2 2 1 0 2 2 2 1 1 2 4 2 1 1 0 4 3 0 3 6 11 17 19 20 22 22 24 26 26 27 28 29 29 28 27 26 24 24 24 25 26 27 29 30 30 30 31 31 31 33 33 31 30 29 27 26 25 24 23 21 20 20 20 20 20 19 17 15 13 11 8 6 3 2 4 6 7 7 7 7 6 6 7 7 7 6 6 7 9 10 11 12 13 14 15
1 1 1 2 1 1 2 2 2 0 1 0 1 0 2 1 1 4 4 4 4 5 10 16 20 23 24 24 26 28 28 28 29 29 29 27 26 25 24 24 26 27 27 27 29 30 30 30 30 30 31 34 34 32 31 29 28 28 27 26 25 23 22 21 20 21 21 20 18 17 16 14 10 7 5 3 3 5 7 7 7 7 6 7 7 7 7 6 6 7 8 9 10 11 12 13 14
2 2 2 2 2 1 2 2 1 1 1 1 2 2 2 1 1 3 5 5 3 3 6 10 17 22 22 23 26 27 28 28 28 28 29 28 26 24 24 25 27 28 27 27 29 30 30 30 29 30 33 35 34 32 31 29 29 29 27 26 26 24 22 20 21 22 21 20 20 18 17 15 11 8 7 5 3 4 6 6 7 7 7 7 7 7 7 6 5 6 7 8 9 10 11 13 14
2 1 2 2 1 1 1 1 1 1 0 1 2 3 2 0 1 2 3 3 2 2 5 7 11 17 19 20 23 25 25 26 27 28 29 29 28 27 26 26 27 27 27 27 28 29 30 29 29 31 34 35 34 32 31 29 29 28 25 24 24 24 23 22 23 23 22 22 21 19 18 16 13 10 8 7 4 4 5 6 7 8 8 8 8 8 8 6 5 5 6 7 8 9 10 12 13
1 1 1 1 1 1 1 1 1 1 1 1 1 3 2 1 1 1 1 1 2 1 3 5 9 15 17 19 21 23 24 25 27 28 28 28 27 26 26 26 26 27 27 27 27 29 30 29 30 33 35 36 35 33 31 29 28 26 25 24 24 25 25 24 23 23 23 23 22 20 19 17 15 13 10 8 6 5 5 6 7 8 8 9 8 8 8 7 5 5 6 6 7 8 9 11 12
1 2 3 2 2 1 0 1 1 0 1 1 1 1 2 2 2 2 2 2 0 1 1 2 8 14 16 17 19 21 23 24 25 26 25 24 24 25 25 26 26 26 26 26 27 29 29 30 31 34 36 36 35 33 31 29 28 27 25 25 25 25 25 24 24 24 25 24 23 22 20 19 17 15 13 9 7 6 5 6 7 8 9 9 9 8 8 7 5 5 5 6 7 8 9 10 11
1 0 2 2 2 1 1 1 0 1 0 1 3 1 3 2 1 3 3 2 1 1 1 1 8 14 15 16 18 19 21 22 23 23 22 22 23 24 24 25 26 26 26 25 26 27 29 30 31 33 35 36 35 33 31 30 28 27 26 25 24 24 23 23 25 26 26 25 24 23 22 21 19 17 14 11 9 8 5 6 7 8 10 10 9 9 9 7 6 5 6 5 6 7 8 9 10
Wind_Direction
244 248 249 247 243 212 207 200 290 318 78 258 239 198 252 227 198 273 177 160 150 178 164 145 153 152 142 168 173 113 123 159 163 146 191 179 153 163 165 164 167 166 163 163 163 159 163 163 162 161 156 153 146 137 127 115 96 82 72 66 60 57 54 56 56 56 57 59 62 62 60 62 64 64 64 63 60 57 56 56 58 60 61 61 60 58 56 53 52 51 50 51 49 48 48 48 48
231 239 243 236 230 221 186 139 202 293 307 263 237 172 241 314 36 238 212 203 225 166 149 142 152 156 138 152 149 84 127 160 160 128 126 150 151 158 164 165 168 166 164 164 163 161 164 165 165 164 160 156 149 141 131 119 100 84 74 67 62 57 54 55 56 57 57 58 60 60 59 61 62 63 63 61 59 57 57 58 61 63 64 62 60 57 55 53 52 51 51 51 51 50 50 49 49
229 228 233 222 207 206 155 136 199 185 234 246 245 216 221 344 216 245 236 217 165 144 141 144 151 151 123 135 149 112 156 166 155 134 135 155 155 158 164 167 169 167 168 165 163 164 165 166 166 166 164 159 152 145 135 123 105 87 77 69 64 60 55 53 56 57 57 58 59 59 60 60 62 63 62 60 58 57 58 61 64 65 64 62 59 57 54 53 52 52 53 52 53 52 52 51 49
240 233 236 214 186 170 121 136 183 176 230 231 249 241 192 213 227 262 200 166 142 138 141 146 148 157 152 146 156 136 157 168 167 153 151 162 159 159 163 167 169 170 170 166 164 165 165 166 167 169 167 162 156 147 139 128 112 93 80 72 66 62 57 54 54 56 57 58 58 59 59 61 62 62 61 59 57 57 59 62 66 66 64 61 58 56 54 53 53 54 54 54 54 54 53 51 47
235 243 257 218 181 154 110 154 134 189 225 186 212 240 206 218 224 160 140 143 139 141 157 153 144 159 169 165 159 146 166 168 171 165 159 164 160 159 164 168 170 171 170 165 164 165 166 167 168 172 169 164 158 150 145 134 117 97 84 75 68 63 58 54 53 55 56 57 57 58 59 60 62 63 61 58 58 58 61 65 68 66 63 60 57 55 54 53 53 55 55 55 55 54 52 49 46
228 229 242 226 188 155 130 218 200 219 227 161 195 235 202 222 202 158 149 149 150 179 175 167 157 148 148 171 172 157 162 168 168 169 164 162 160 162 166 169 170 171 168 164 166 167 166 168 171 173 170 166 159 153 148 137 121 101 88 78 71 65 59 54 52 53 55 56 56 57 58 60 62 63 61 59 59 61 65 69 68 67 63 59 56 54 54 53 54 55 56 55 55 53 51 48 45
223 219 228 205 169 159 162 223 223 223 228 180 186 190 186 216 173 156 157 163 182 205 182 188 161 143 125 178 179 167 168 171 167 170 165 161 161 165 169 170 170 169 165 164 167 169 168 170 173 175 172 167 160 156 149 139 123 106 93 80 73 66 60 54 51 52 53 55 55 56 58 60 63 63 61 60 61 64 69 72 70 67 63 58 55 54 54 54 55 56 56 55 55 53 50 46 43
214 211 197 156 125 13 170 230 234 216 235 212 197 195 189 192 164 159 175 188 196 187 183 180 161 153 132 164 165 169 174 169 170 172 163 161 163 168 171 171 170 168 166 167 168 169 169 172 175 176 175 169 163 158 151 143 126 111 98 84 76 67 60 54 50 50 52 53 54 54 56 59 62 62 61 61 63 67 72 73 71 67 62 57 54 53 53 53 55 56 56 55 54 52 48 44 41
200 200 167 143 183 276 226 243 248 225 239 238 220 211 193 182 171 167 182 210 211 184 178 170 168 181 152 146 149 164 171 168 175 171 162 164 166 170 174 173 173 169 167 169 169 169 171 173 177 179 178 172 165 161 155 148 133 119 102 89 78 68 61 54 50 49 50 51 52 53 54 56 60 62 61 61 64 69 72 73 70 65 60 56 53 52 52 53 55 56 56 55 53 51 46 42 39
190 196 177 127 164 227 236 227 237 235 226 227 234 223 200 185 178 177 182 197 209 182 173 170 169 164 144 137 148 164 167 170 180 169 165 168 168 172 175 176 176 170 168 170 169 169 172 175 178 182 181 175 168 164 160 153 139 126 108 95 81 71 62 54 50 48 50 50 52 53 53 55 58 61 61 62 65 70 72 71 68 62 58 55 53 51 52 53 55 57 56 54 51 49 45 41 37
186 194 168 164 201 223 228 227 232 238 242 252 256 229 215 194 180 177 179 178 193 178 172 173 161 145 131 136 157 166 166 173 181 167 167 170 169 175 176 178 178 173 170 169 170 171 173 176 180 184 182 177 172 168 163 158 147 133 115 100 85 74 64 56 50 48 49 49 52 53 53 55 57 61 62 64 66 70 72 71 67 60 57 54 53 51 51 53 55 57 55 53 49 46 43 39 35
196 179 142 203 214 223 218 234 239 246 260 240 252 224 214 194 176 166 173 187 186 175 182 184 176 154 119 130 163 165 165 173 179 168 169 172 172 176 177 180 178 175 172 172 174 174 176 179 182 185 183 180 174 171 167 163 154 141 123 106 89 77 66 57 51 48 48 48 52 53 53 55 58 62 62 64 64 68 71 69 66 59 55 52 53 51 50 52 54 56 55 52 48 44 41 36 33
208 146 139 212 205 206 204 234 239 243 255 206 203 215 210 195 179 181 183 191 178 165 195 193 178 163 130 138 164 166 164 171 176 170 172 173 176 178 179 181 177 177 175 176 178 177 179 182 184 184 184 182 176 173 170 168 161 149 131 114 96 80 69 60 52 48 47 46 51 52 53 55 59 63 61 61 62 66 69 67 64 58 54 52 52 52 51 52 54 56 54 52 47 42 38 34 30
212 165 162 238 239 195 203 233 219 226 251 193 198 207 206 205 198 197 188 174 180 187 202 196 184 168 145 136 163 172 163 167 174 172 174 176 178 179 181 181 178 179 178 179 182 182 183 185 186 185 186 183 179 176 172 173 167 156 140 123 103 85 72 61 53 48 46 44 48 51 51 55 58 62 60 59 59 64 68 67 63 58 54 52 53 53 52 52 53 55 54 51 45 39 35 31 28
214 187 156 250 263 218 208 221 197 224 247 166 199 211 211 217 216 210 197 184 198 201 194 189 188 181 176 172 182 179 165 167 175 174 178 177 179 182 182 182 181 180 180 180 184 187 187 188 187 186 188 184 181 179 176 177 172 164 149 130 110 90 76 63 54 47 44 42 45 50 49 52 56 59 59 56 58 63 68 68 64 58 54 52 53 54 53 52 53 54 53 50 43 37 33 29 25
206 186 94 235 230 210 212 212 177 220 245 197 197 210 218 226 219 216 209 203 200 192 183 178 184 192 193 193 200 182 167 169 176 177 180 178 179 183 182 183 183 181 181 182 187 191 191 191 188 188 189 185 182 182 182 182 177 171 155 136 118 94 79 65 55 47 42 40 43 48 47 49 52 54 55 53 56 62 69 69 64 59 53 51 53 55 54 51 50 50 50 48 42 36 31 27 23
198 186 207 242 229 199 222 183 190 221 242 224 198 201 210 231 225 222 215 211 196 179 182 181 185 196 195 199 205 182 169 170 175 179 181 180 180 181 184 185 184 182 183 184 189 193 193 193 190 190 188 185 183 185 186 185 183 173 157 143 125 98 84 67 55 47 40 37 40 44 45 45 48 51 52 51 54 61 68 67 63 59 53 51 53 55 55 51 48 46 45 43 40 34 30 26 20
183 132 219 247 185 171 243 117 308 338 8 318 273 216 206 213 220 212 206 203 182 174 183 185 188 198 192 196 196 180 173 172 177 181 180 182 182 181 184 186 184 183 183 186 191 194 195 194 191 191 188 185 185 187 189 188 185 175 163 153 131 104 90 68 56 47 37 35 36 41 42 43 45 49 51 50 53 59 66 66 63 58 54 52 52 55 55 52 47 43 41 38 36 32 28 23 18
167 137 256 252 139 312 336 45 16 10 348 330 328 329 303 242 219 202 203 179 165 168 181 186 188 195 187 185 183 177 175 175 180 182 182 183 183 183 185 187 186 183 185 188 191 194 195 195 192 190 189 187 187 189 191 190 186 179 171 159 138 115 96 70 60 46 35 34 34 37 40 40 42 47 51 50 52 58 65 65 62 59 55 53 54 55 54 53 49 43 38 35 33 29 25 20 17
347 79 259 255 339 315 327 8 5 358 344 337 329 333 329 297 260 211 200 174 177 180 177 179 186 190 186 181 179 177 175 177 180 183 184 184 185 188 187 187 187 185 190 192 192 194 195 194 191 189 190 189 189 192 193 190 185 183 178 163 148 128 103 74 62 44 35 33 33 34 36 39 39 45 50 49 51 55 64 64 61 60 57 57 55 55 53 51 50 43 36 32 30 27 23 19 15
340 39 194 269 349 323 311 334 342 344 342 337 328 329 326 322 313 248 197 170 201 202 191 195 201 194 185 179 178 178 176 177 179 183 184 184 186 188 187 190 191 190 193 195 194 195 193 193 191 189 190 191 192 194 193 190 188 186 179 166 155 136 108 80 63 42 34 32 32 31 31 35 36 42 45 45 47 51 63 64 62 61 59 59 56 54 50 48 47 43 36 30 27 24 21 18 14
324 292 202 322 356 334 313 326 329 333 336 330 330 329 316 319 313 268 218 197 220 215 207 210 212 204 192 181 179 178 177 177 179 183 186 185 186 187 189 195 195 194 198 198 197 196 192 190 193 192 190 191 192 194 194 191 188 184 180 168 156 142 115 86 63 40 34 32 31 28 26 30 34 39 40 40 41 47 61 64 63 60 58 57 54 53 48 45 43 40 37 31 26 23 20 17 13
333 287 311 332 345 330 321 323 318 325 331 323 320 315 312 313 307 288 248 233 234 224 217 213 212 208 200 186 180 179 179 180 183 186 189 188 188 189 192 196 195 195 199 200 199 196 191 190 194 192 190 191 190 191 192 191 187 183 181 172 158 144 125 94 69 41 34 33 29 25 22 26 32 35 36 37 35 43 59 63 64 59 57 55 51 51 47 44 39 36 34 30 27 22 18 14 10
287 256 300 324 331 327 325 320 312 315 315 310 310 305 305 298 296 300 267 250 243 235 224 214 209 201 193 183 181 184 184 186 188 188 191 191 191 193 194 196 196 196 198 199 199 195 191 192 193 191 191 192 189 188 190 189 186 181 174 170 163 154 137 101 74 40 35 32 27 22 18 22 30 31 32 33 30 41 58 63 63 58 57 53 49 47 45 42 36 32 30 28 26 21 16 11 8
200 227 305 322 320 318 319 314 306 306 306 308 309 294 286 286 289 284 275 267 247 241 231 218 211 193 185 183 184 187 187 188 187 185 187 189 190 192 193 196 197 196 197 198 197 193 192 194 193 191 192 191 189 188 187 185 182 181 175 167 161 167 147 103 82 41 36 31 25 19 16 19 25 27 28 28 29 39 57 64 61 58 57 52 47 44 42 40 34 31 29 27 25 20 15 9 6
213 297 313 313 309 311 311 306 300 301 301 302 303 287 281 285 289 278 266 265 251 245 237 222 212 191 184 186 187 187 187 186 185 184 186 187 188 191 193 197 198 195 197 197 195 192 193 195 192 191 192 190 190 188 185 186 187 189 187 179 175 183 153 112 98 46 39 29 22 16 14 16 19 23 23 23 28 36 55 65 62 59 56 51 47 42 39 36 32 30 29 28 24 19 13 8 7
322 314 310 304 303 304 299 293 291 295 296 294 287 273 283 278 266 260 257 258 248 240 233 222 210 192 186 189 190 189 188 186 185 185 186 187 189 192 195 197 196 195 196 196 193 191 194 195 191 190 190 187 187 186 185 191 191 184 185 192 198 199 176 155 140 60 40 26 19 14 11 10 14 21 20 20 25 34 55 65 64 58 55 52 47 43 37 33 31 29 28 28 25 20 13 8 7
313 312 310 298 297 296 288 281 276 281 288 288 282 273 283 273 242 228 244 260 254 234 222 210 204 195 190 191 192 190 189 187 186 187 189 191 192 194 197 196 196 196 195 195 192 192 193 193 193 191 188 184 185 187 185 186 184 178 185 198 198 188 182 187 157 73 40 24 14 11 7 3 12 19 16 17 20 33 58 67 64 56 53 52 48 44 37 31 30 27 25 24 22 18 12 8 7
312 313 307 293 304 294 275 262 255 254 256 276 296 292 267 253 239 218 234 250 250 231 216 202 200 196 193 194 193 191 190 187 187 190 194 195 194 196 198 197 197 197 195 193 191 192 193 193 194 192 192 191 190 192 187 182 183 184 186 192 189 177 181 193 157 82 33 19 10 7 2 360 10 15 12 11 17 33 55 68 66 56 50 48 47 45 37 31 28 26 23 21 18 14 8 7 6
313 306 255 299 327 291 260 249 245 239 239 252 269 280 251 245 244 196 214 242 234 215 210 201 198 195 194 195 195 192 189 188 189 192 194 195 195 197 198 197 195 196 196 193 191 193 194 195 193 192 195 195 192 193 192 189 191 189 182 181 181 177 188 196 163 97 28 9 5 4 359 359 6 8 8 7 15 34 50 64 65 57 49 43 43 40 34 31 26 23 20 17 16 11 6 5 4
313 299 257 306 312 280 277 278 245 229 245 235 218 254 249 252 254 197 203 231 222 207 207 201 197 193 193 195 195 192 190 190 191 193 194 195 196 197 199 197 192 194 196 193 192 194 195 195 192 190 194 196 194 195 197 199 199 190 182 182 183 188 201 199 172 131 23 359 0 2 358 355 359 1 3 3 14 33 47 60 62 56 49 42 42 38 31 28 25 21 16 13 10 6 4 4 3
360 288 296 303 227 278 311 302 239 205 253 228 199 251 249 218 249 211 204 220 212 207 209 203 197 193 192 193 192 191 191 191 192 193 194 195 197 197 199 199 194 194 194 191 192 195 196 193 188 189 196 198 197 199 201 204 205 196 189 187 184 191 204 200 177 158 352 354 358 360 355 351 352 357 359 1 12 30 45 55 61 56 48 44 43 40 31 24 21 20 15 10 4 1 2 2 2
356 218 260 273 240 287 317 298 249 218 251 240 216 245 280 209 233 217 210 212 205 206 209 202 196 193 191 190 189 189 190 191 192 195 196 196 198 198 200 201 198 195 194 193 193 196 197 193 188 193 202 203 201 203 205 207 209 205 197 187 180 191 204 200 184 175 292 348 357 355 351 346 347 353 356 359 9 26 42 50 63 57 47 43 41 40 32 21 17 16 15 8 1 359 1 1 1
304 236 242 257 243 269 294 298 287 226 206 242 241 245 257 270 275 211 209 209 207 208 209 200 196 196 192 188 188 187 189 192 193 196 196 197 198 199 201 202 200 196 195 197 197 198 198 195 193 198 203 204 204 206 209 210 212 211 204 188 177 193 206 200 191 190 256 338 353 350 346 341 343 350 354 359 6 20 38 49 65 57 48 41 37 37 26 17 13 11 12 7 360 358 1 3 1
233 228 239 261 244 243 256 267 287 323 209 237 259 261 253 266 285 246 220 215 211 211 210 203 197 197 192 188 187 188 193 194 195 196 196 197 198 199 202 201 199 196 194 196 199 201 202 200 199 202 204 204 204 207 211 212 214 214 207 190 177 190 205 200 198 203 250 329 346 344 340 336 340 349 354 358 1 11 36 55 63 52 42 36 34 31 18 11 9 8 7 3 359 358 1 4 3
221 222 225 242 256 246 240 253 262 326 291 256 256 264 261 263 264 254 234 222 219 217 212 205 201 198 193 188 187 191 194 192 193 196 196 197 198 200 202 201 199 197 195 196 199 203 204 202 203 204 205 206 205 207 211 212 215 212 203 190 178 189 206 202 198 210 253 317 335 337 334 333 338 347 354 357 355 3 32 53 55 43 31 25 28 25 13 6 6 8 6 1 360 359 1 3 3
217 213 233 233 247 258 249 254 255 164 254 264 249 253 256 254 257 250 233 222 221 220 211 207 205 198 192 190 190 191 190 189 193 196 196 197 198 200 202 201 199 198 197 197 200 205 204 204 207 205 205 208 208 208 210 213 217 210 201 189 175 186 208 204 201 214 243 294 324 330 331 331 336 346 353 355 351 1 27 41 42 34 19 14 17 13 4 1 4 6 6 2 359 359 3 5 5
226 227 255 259 243 256 257 248 251 169 161 269 266 268 262 245 252 249 233 218 218 220 211 208 207 196 192 190 188 187 185 187 191 192 194 196 199 201 202 203 202 202 202 201 205 207 203 205 209 208 206 206 208 210 210 214 218 209 198 182 171 192 212 209 209 215 230 274 314 324 326 329 334 346 353 353 351 4 23 23 26 18 5 359 353 355 357 360 1 3 4 0 355 357 5 9 11
230 227 243 260 240 256 272 259 255 211 164 263 266 267 265 247 244 242 231 219 216 218 213 210 208 195 186 186 185 183 182 185 189 190 192 195 199 201 202 203 204 206 206 207 209 206 202 207 209 208 208 206 206 209 209 213 214 202 185 171 177 205 217 215 216 219 234 264 303 315 321 327 335 350 354 351 353 6 15 5 6 360 348 342 337 349 358 358 357 360 3 359 353 358 6 9 14
221 215 222 247 222 172 261 269 245 187 185 234 260 264 270 256 248 242 231 226 220 217 214 212 211 202 190 187 187 186 186 188 189 190 192 194 197 200 202 204 205 207 209 210 208 203 204 210 211 210 211 209 205 203 206 210 206 193 178 169 183 208 215 213 215 221 237 257 293 306 319 329 338 355 354 351 357 4 6 351 337 338 337 335 334 348 356 353 352 357 2 358 354 359 6 10 14
220 213 215 239 230 197 230 269 356 318 218 225 243 283 282 245 241 250 229 224 225 219 212 210 211 206 195 187 186 188 190 192 191 190 193 195 198 202 204 207 207 208 211 210 207 206 211 213 213 213 213 213 208 201 202 205 199 189 178 173 187 203 207 204 202 210 228 250 282 301 318 333 345 357 355 356 0 1 359 338 312 324 333 330 329 341 351 349 350 357 360 357 354 358 8 13 12
234 220 219 233 236 216 229 263 350 329 276 219 179 232 272 214 220 237 217 212 217 209 201 201 202 197 187 181 182 187 191 193 195 195 196 198 200 202 204 207 209 211 211 208 207 211 214 214 215 216 213 212 209 203 203 201 197 191 179 179 193 202 204 197 191 202 220 244 272 298 320 340 354 1 2 3 2 1 355 328 306 321 328 324 323 335 347 348 352 358 359 357 355 360 10 13 10
259 218 209 223 229 221 223 196 162 227 271 229 163 194 261 235 219 218 203 209 208 197 187 183 184 183 181 181 183 188 191 191 194 197 198 200 202 203 205 208 211 212 210 208 210 213 214 216 218 219 215 212 207 204 204 198 195 189 179 184 199 208 211 203 201 208 215 248 268 293 320 349 7 12 13 10 5 2 353 328 313 322 323 319 320 332 344 348 353 357 359 358 357 3 11 12 9
258 186 182 206 214 219 217 193 198 232 291 287 195 199 240 263 237 201 190 207 209 201 194 176 175 177 178 181 185 190 193 193 195 197 199 203 205 207 209 210 212 212 211 211 212 213 215 217 217 216 215 213 206 202 204 199 193 185 178 183 195 206 211 207 209 209 206 229 251 278 319 20 32 28 24 17 10 4 354 336 325 321 319 318 321 333 342 347 352 358 0 359 358 4 11 11 10
247 24 167 188 200 211 205 196 221 239 273 273 209 187 217 262 249 180 179 201 212 205 199 185 175 174 174 179 186 193 197 197 200 202 203 206 208 210 211 212 212 213 213 214 214 215 217 218 217 214 212 210 205 199 201 200 193 182 179 182 190 201 207 204 203 198 196 209 223 228 195 74 54 42 32 24 16 8 357 343 333 324 317 318 323 331 339 345 352 359 1 359 359 5 9 9 8
261 10 183 164 170 192 184 197 224 223 232 256 209 174 198 250 212 177 180 198 210 202 193 189 181 180 179 181 187 194 197 199 203 206 209 211 212 212 211 211 212 213 216 215 215 218 219 217 216 215 211 208 204 197 198 199 191 182 181 179 182 194 204 204 199 189 190 197 198 199 189 97 65 49 38 28 20 13 2 347 336 325 319 319 322 327 337 346 354 0 1 359 360 5 8 7 5
269 360 227 183 154 163 168 199 221 225 236 242 200 178 197 257 197 188 192 195 200 193 182 184 182 181 183 186 190 194 197 199 202 207 211 213 213 211 211 213 214 216 218 216 216 219 220 218 215 213 213 211 203 196 196 197 190 183 182 179 180 190 199 202 198 188 189 196 195 197 209 160 69 50 38 30 23 16 5 352 338 327 320 317 318 324 335 347 355 1 1 358 1 6 7 4 3
248 303 263 230 178 163 175 193 198 222 255 251 195 175 185 230 216 198 205 190 185 190 183 175 176 181 184 188 192 195 198 199 200 203 206 209 211 210 211 215 217 218 218 215 216 218 219 217 213 209 209 209 203 197 197 198 193 186 184 182 184 191 197 199 197 192 195 203 209 213 230 244 61 52 38 30 24 16 7 355 341 328 321 316 315 321 334 347 355 360 1 359 2 7 5 2 2
220 233 264 252 186 173 212 204 208 223 243 254 180 161 173 228 236 214 212 199 180 184 187 183 182 184 186 188 190 193 196 198 199 202 204 208 210 209 209 211 214 216 216 215 216 216 216 215 212 208 206 205 203 200 200 201 195 189 186 186 188 192 196 199 199 198 201 208 217 223 238 262 281 45 38 28 21 14 7 357 344 329 322 316 312 319 333 344 353 1 2 359 3 6 3 1 1
222 213 229 240 206 223 231 203 223 236 234 200 137 152 203 251 243 206 205 212 175 172 187 193 190 184 182 183 184 189 194 198 201 205 208 210 211 210 210 212 215 217 217 216 216 216 215 213 210 209 206 203 203 203 204 203 196 190 189 189 192 194 196 200 202 202 205 211 218 223 235 257 272 302 34 30 17 10 5 357 345 331 323 315 308 315 329 339 351 3 2 358 2 4 2 1 2
255 235 235 263 255 236 256 219 215 233 203 121 126 154 217 165 191 239 221 231 142 154 174 182 180 174 172 174 180 187 194 200 205 209 211 212 213 213 214 216 218 220 220 218 216 217 216 212 209 209 205 202 203 205 205 202 196 192 191 192 195 196 198 204 205 206 209 213 217 222 231 247 264 277 348 30 13 4 3 357 345 333 325 312 304 311 322 334 351 4 1 358 359 1 1 1 3
238 256 270 297 338 298 277 254 237 210 104 127 142 171 248 151 307 309 294 138 100 124 145 154 158 162 165 171 182 190 195 203 209 210 212 213 214 215 216 218 221 223 223 220 218 218 215 211 209 209 207 204 203 205 205 202 198 196 193 194 197 198 201 205 208 209 211 215 218 222 230 239 254 272 293 6 9 359 358 356 345 335 324 306 300 307 317 329 350 2 360 356 356 358 0 2 4
300 298 309 305 295 266 275 265 260 263 90 25 251 262 332 18 12 347 21 74 81 102 133 146 152 159 167 174 184 193 199 206 210 211 212 212 212 214 216 220 223 222 221 220 220 220 217 213 211 210 208 206 204 205 205 204 202 200 196 197 199 200 202 206 210 213 215 217 219 223 230 236 245 267 284 299 347 354 353 355 346 333 320 302 297 303 312 325 347 359 357 353 354 357 359 2 5
322 321 324 298 255 221 270 282 331 2 71 335 332 341 334 35 78 359 34 71 84 113 135 145 155 163 172 179 187 196 202 206 210 212 212 211 210 212 215 220 224 223 222 221 222 222 219 216 213 212 209 206 204 205 206 206 205 204 201 202 203 201 201 206 213 217 219 220 221 225 231 237 242 255 274 283 307 342 348 352 345 333 315 298 295 300 307 320 341 352 351 350 352 355 358 2 4
230 278 332 323 271 287 294 261 307 348 341 296 345 348 316 235 125 353 27 66 88 145 156 152 161 172 177 182 189 196 201 205 209 213 214 212 212 213 215 220 224 224 225 225 224 223 219 215 213 213 212 208 206 206 206 207 207 207 205 206 206 203 203 207 213 218 220 221 223 227 232 237 239 245 260 272 288 326 340 346 343 332 311 294 292 298 303 315 332 340 343 345 349 353 357 2 4
223 271 9 107 229 278 301 299 309 311 212 222 9 7 326 270 233 255 353 7 43 102 179 168 170 181 183 186 192 196 200 204 209 214 215 213 215 219 221 223 225 225 226 226 224 221 217 212 211 212 213 211 209 207 206 207 208 207 206 206 206 206 207 209 214 219 222 224 225 227 232 235 235 239 249 261 282 309 327 336 339 328 307 292 290 294 299 308 319 326 332 338 344 350 356 0 3
2 360 7 351 301 318 272 278 302 145 166 173 115 55 286 270 244 262 310 309 33 102 225 177 174 186 190 193 197 200 203 207 211 216 218 217 219 224 225 225 227 227 227 226 224 220 217 213 211 212 212 211 209 207 207 208 209 208 206 206 207 207 210 214 217 221 225 227 227 227 231 234 233 236 242 253 273 292 307 323 330 322 304 291 287 289 293 299 305 311 318 328 337 345 353 358 1
89 65 30 331 303 336 323 295 58 98 111 176 158 173 280 291 299 303 304 297 282 178 283 224 178 188 197 200 202 205 207 211 214 218 222 223 225 226 226 225 225 225 226 225 223 219 215 213 213 213 214 213 211 209 208 209 210 210 209 208 208 209 211 216 219 223 226 229 230 229 230 233 233 234 238 246 262 274 290 312 320 315 301 290 286 286 287 289 293 298 304 316 329 339 348 354 358